Hagerstown, MD

6:50 AM EST on December 07, 2019 (GMT -0500)
Hagerstown Regional-Henson

Weather History for KHGR - November, 2019

Change the Weather History Date:

Sunday, November 17, 2019

  Actual Average Record
Temperature  
Mean Temperature 33 °F 44 °F  
Max Temperature 41 °F 53 °F 62 °F (2016)
Min Temperature 25 °F 36 °F 21 °F (1997)
Degree Days  
Heating Degree Days 32 20  
Month to date heating degree days 403 300  
Since 1 July heating degree days 622 702  
Cooling Degree Days 0 0  
Month to date cooling degree days 0 0  
Year to date cooling degree days 1473 969  
Moisture  
Dew Point 18 °F    
Average Humidity 54    
Maximum Humidity 76    
Minimum Humidity 31    
Precipitation  
Precipitation 0.00 in 0.11 in 0.37 in (2014)
Month to date precipitation 0.34 1.69  
Year to date precipitation 34.44 34.87  
Sea Level Pressure  
Sea Level Pressure 30.25 in    
Wind  
Wind Speed 6 mph (North)    
Max Wind Speed 10 mph    
Max Gust Speed 13 mph    
Visibility 10 miles    
Events      
T = Trace of Precipitation, MM = Missing Value Source: NWS Daily Summary

Daily Weather History Graph

Daily Weather History Graph

Search for Another Location

Airport or City:

Astronomy

Nov. 17, 2019 Rise Set
Actual Time 6:57 AM EST 4:53 PM EST
Civil Twilight 6:28 AM EST 5:22 PM EST
Nautical Twilight 5:55 AM EST 5:55 PM EST
Astronomical Twilight 5:23 AM EST 6:27 PM EST
Moon 9:28 PM EST (11/17) 11:41 AM EST (11/17)
Length of Visible Light 10h 54m
Length of Day
9h 56m
Waning Gibbous, 73% of the Moon is Illuminated
Nov 17
Waning Gibbous
Nov 19
Last Quarter
Nov 26
New
Dec 4
First Quarter
Dec 12
Full

Hourly Weather History & Observations

Time (EST) Temp. Windchill Dew Point Humidity Pressure Visibility Wind Dir Wind Speed Gust Speed Precip Events Conditions
12:53 AM 30.9 °F 25.2 °F 3.9 °F 32% 30.40 in 10.0 mi NNE 5.8 mph - N/A   Mostly Cloudy
1:53 AM 26.1 °F 20.5 °F 10.0 °F 51% 30.40 in 10.0 mi NNW 4.6 mph - N/A   Clear
2:53 AM 27.0 °F 18.7 °F 9.0 °F 47% 30.38 in 10.0 mi NNW 8.1 mph - N/A   Overcast
3:53 AM 28.0 °F 21.7 °F 8.1 °F 43% 30.37 in 10.0 mi North 5.8 mph - N/A   Overcast
4:53 AM 28.0 °F 19.3 °F 8.1 °F 43% 30.36 in 10.0 mi North 9.2 mph - N/A   Overcast
5:36 AM 28.9 °F 20.4 °F 9.0 °F 43% 30.31 in 10.0 mi North 9.2 mph - N/A   Overcast
5:53 AM 28.9 °F 20.4 °F 9.0 °F 43% 30.37 in 10.0 mi NNW 9.2 mph - N/A   Overcast
6:25 AM 28.9 °F 21.1 °F 9.0 °F 43% 30.30 in 10.0 mi North 8.1 mph - N/A   Overcast
6:53 AM 28.9 °F 20.4 °F 9.0 °F 43% 30.36 in 10.0 mi North 9.2 mph - N/A   Overcast
7:53 AM 28.9 °F 21.1 °F 10.0 °F 45% 30.35 in 10.0 mi NNW 8.1 mph - N/A   Overcast
8:53 AM 30.9 °F 23.5 °F 10.9 °F 43% 30.34 in 10.0 mi North 8.1 mph - N/A   Overcast
9:53 AM 34.0 °F 28.8 °F 16.0 °F 48% 30.33 in 10.0 mi North 5.8 mph - N/A   Overcast
10:05 AM 34.0 °F 28.0 °F 16.0 °F 48% 30.27 in 10.0 mi North 6.9 mph - N/A   Overcast
11:53 AM 37.9 °F 35.5 °F 25.0 °F 60% 30.26 in 10.0 mi Variable 3.5 mph - N/A   Overcast
12:53 PM 39.9 °F 35.1 °F 26.1 °F 58% 30.23 in 10.0 mi NNE 6.9 mph - N/A   Overcast
1:27 PM 39.9 °F 35.8 °F 25.0 °F 55% 30.16 in 10.0 mi NNE 5.8 mph - N/A   Overcast
1:53 PM 39.9 °F 35.1 °F 25.0 °F 55% 30.20 in 10.0 mi NE 6.9 mph - N/A   Overcast
2:03 PM 39.9 °F 35.1 °F 25.0 °F 55% 30.14 in 10.0 mi North 6.9 mph - N/A   Overcast
2:53 PM 39.9 °F 34.5 °F 24.1 °F 53% 30.18 in 10.0 mi North 8.1 mph - N/A   Overcast
3:53 PM 39.9 °F 33.9 °F 24.1 °F 53% 30.17 in 10.0 mi NE 9.2 mph - N/A   Overcast
4:53 PM 39.0 °F 34.8 °F 24.1 °F 55% 30.16 in 10.0 mi NNE 5.8 mph - N/A   Overcast
5:53 PM 39.0 °F 35.7 °F 27.0 °F 62% 30.15 in 10.0 mi NNE 4.6 mph - N/A   Overcast
6:53 PM 37.9 °F 33.5 °F 27.0 °F 65% 30.15 in 10.0 mi North 5.8 mph - N/A   Overcast
8:53 PM 37.9 °F 35.5 °F 28.0 °F 68% 30.11 in 10.0 mi North 3.5 mph - N/A   Overcast
9:53 PM 37.9 °F 35.5 °F 28.0 °F 68% 30.09 in 10.0 mi NNW 3.5 mph - N/A   Overcast
10:53 PM 37.0 °F 33.3 °F 30.0 °F 76% 30.06 in 9.0 mi NNW 4.6 mph - N/A   Overcast
11:53 PM 36.0 °F 31.1 °F 30.9 °F 82% 30.04 in 6.0 mi NNW 5.8 mph - N/A   Haze